linux/drivers/watchdog/
<<
>>
Prefs
Kconfig 59337 2016-12-11 19:17:54
Makefile 7697 2016-12-11 19:17:54
acquirewdt.c 8692 2016-12-11 19:17:54
advantechwdt.c 7983 2016-12-11 19:17:54
alim1535_wdt.c 10135 2016-12-11 19:17:54
alim7101_wdt.c 11167 2016-12-11 19:17:54
ar7_wdt.c 7879 2016-12-11 19:17:54
asm9260_wdt.c 9404 2016-12-11 19:17:54
aspeed_wdt.c 5157 2016-12-11 19:17:54
at32ap700x_wdt.c 9841 2016-12-11 19:17:54
at91rm9200_wdt.c 8064 2016-12-11 19:17:54
at91sam9_wdt.c 10960 2016-12-11 19:17:54
at91sam9_wdt.h 1530 2016-12-11 19:17:54
ath79_wdt.c 7593 2016-12-11 19:17:54
atlas7_wdt.c 5975 2016-12-11 19:17:54
bcm2835_wdt.c 6941 2016-12-11 19:17:54
bcm47xx_wdt.c 6150 2016-12-11 19:17:54
bcm63xx_wdt.c 7136 2016-12-11 19:17:54
bcm7038_wdt.c 5824 2016-12-11 19:17:54
bcm_kona_wdt.c 9615 2016-12-11 19:17:54
bfin_wdt.c 10356 2016-12-11 19:17:54
booke_wdt.c 5971 2016-12-11 19:17:54
cadence_wdt.c 13212 2016-12-11 19:17:54
coh901327_wdt.c 13086 2016-12-11 19:17:54
cpu5wdt.c 6791 2016-12-11 19:17:54
cpwd.c 16264 2016-12-11 19:17:54
da9052_wdt.c 5337 2016-12-11 19:17:54
da9055_wdt.c 4605 2016-12-11 19:17:54
da9062_wdt.c 6458 2016-12-11 19:17:54
da9063_wdt.c 5534 2016-12-11 19:17:54
davinci_wdt.c 6497 2016-12-11 19:17:54
diag288_wdt.c 7647 2016-12-11 19:17:54
digicolor_wdt.c 4645 2016-12-11 19:17:54
dw_wdt.c 8259 2016-12-11 19:17:54
ebc-c384_wdt.c 4305 2016-12-11 19:17:54
ep93xx_wdt.c 4452 2016-12-11 19:17:54
eurotechwdt.c 10928 2016-12-11 19:17:54
f71808e_wdt.c 22084 2016-12-11 19:17:54
gef_wdt.c 7672 2016-12-11 19:17:54
geodewdt.c 6603 2016-12-11 19:17:54
gpio_wdt.c 6045 2016-12-11 19:17:54
hpwdt.c 22343 2016-12-11 19:17:54
i6300esb.c 12672 2016-12-11 19:17:54
iTCO_vendor.h 680 2016-12-11 19:17:54
iTCO_vendor_support.c 11089 2016-12-11 19:17:54
iTCO_wdt.c 19352 2016-12-11 19:17:54
ib700wdt.c 8519 2016-12-11 19:17:54
ibmasr.c 9628 2016-12-11 19:17:54
ie6xx_wdt.c 8769 2016-12-11 19:17:54
imgpdc_wdt.c 9602 2016-12-11 19:17:54
imx2_wdt.c 12196 2016-12-11 19:17:54
indydog.c 4703 2016-12-11 19:17:54
intel-mid_wdt.c 4347 2016-12-11 19:17:54
intel_scu_watchdog.c 15396 2016-12-11 19:17:54
intel_scu_watchdog.h 2053 2016-12-11 19:17:54
iop_wdt.c 6030 2016-12-11 19:17:54
it8712f_wdt.c 10199 2016-12-11 19:17:54
it87_wdt.c 18703 2016-12-11 19:17:54
ixp4xx_wdt.c 4680 2016-12-11 19:17:54
jz4740_wdt.c 6364 2016-12-11 19:17:54
kempld_wdt.c 14813 2016-12-11 19:17:54
ks8695_wdt.c 7838 2016-12-11 19:17:54
lantiq_wdt.c 5878 2016-12-11 19:17:54
lpc18xx_wdt.c 9307 2016-12-11 19:17:54
m54xx_wdt.c 5130 2016-12-11 19:17:54
machzwd.c 10054 2016-12-11 19:17:54
max63xx_wdt.c 7154 2016-12-11 19:17:54
max77620_wdt.c 5472 2016-12-11 19:17:54
mei_wdt.c 16267 2016-12-11 19:17:54
mena21_wdt.c 6031 2016-12-11 19:17:54
menf21bmc_wdt.c 5492 2016-12-11 19:17:54
meson_gxbb_wdt.c 8143 2016-12-11 19:17:54
meson_wdt.c 6585 2016-12-11 19:17:54
mixcomwd.c 7428 2016-12-11 19:17:54
moxart_wdt.c 4566 2016-12-11 19:17:54
mpc8xxx_wdt.c 7024 2016-12-11 19:17:54
mt7621_wdt.c 4294 2016-12-11 19:17:54
mtk_wdt.c 6862 2016-12-11 19:17:54
mtx-1_wdt.c 6368 2016-12-11 19:17:54
mv64x60_wdt.c 7825 2016-12-11 19:17:54
ni903x_wdt.c 6899 2016-12-11 19:17:54
nuc900_wdt.c 7310 2016-12-11 19:17:54
nv_tco.c 12493 2016-12-11 19:17:54
nv_tco.h 2062 2016-12-11 19:17:54
octeon-wdt-main.c 17230 2016-12-11 19:17:54
octeon-wdt-nmi.S 1370 2016-12-11 19:17:54
of_xilinx_wdt.c 6996 2016-12-11 19:17:54
omap_wdt.c 9788 2016-12-11 19:17:54
omap_wdt.h 2300 2016-12-11 19:17:54
orion_wdt.c 16996 2016-12-11 19:17:54
pc87413_wdt.c 14364 2016-12-11 19:17:54
pcwd.c 26527 2016-12-11 19:17:54
pcwd_pci.c 20378 2016-12-11 19:17:54
pcwd_usb.c 21590 2016-12-11 19:17:54
pic32-dmt.c 5743 2016-12-11 19:17:54
pic32-wdt.c 6240 2016-12-11 19:17:54
pika_wdt.c 6878 2016-12-11 19:17:54
pnx4008_wdt.c 7267 2016-12-11 19:17:54
pnx833x_wdt.c 7250 2016-12-11 19:17:54
pretimeout_noop.c 1270 2016-12-11 19:17:54
pretimeout_panic.c 1252 2016-12-11 19:17:54
qcom-wdt.c 6518 2016-12-11 19:17:54
rc32434_wdt.c 8324 2016-12-11 19:17:54
rdc321x_wdt.c 7328 2016-12-11 19:17:54
renesas_wdt.c 5365 2016-12-11 19:17:54
retu_wdt.c 4630 2016-12-11 19:17:54
riowd.c 5716 2016-12-11 19:17:54
rn5t618_wdt.c 5293 2016-12-11 19:17:54
rt2880_wdt.c 5041 2016-12-11 19:17:54
s3c2410_wdt.c 19929 2016-12-11 19:17:54
sa1100_wdt.c 4751 2016-12-11 19:17:54
sama5d4_wdt.c 6468 2016-12-11 19:17:54
sb_wdog.c 8737 2016-12-11 19:17:54
sbc60xxwdt.c 10352 2016-12-11 19:17:54
sbc7240_wdt.c 7049 2016-12-11 19:17:54
sbc8360.c 10039 2016-12-11 19:17:54
sbc_epx_c3.c 5119 2016-12-11 19:17:54
sbc_fitpc2_wdt.c 5377 2016-12-11 19:17:54
sbsa_gwdt.c 11246 2016-12-11 19:17:54
sc1200wdt.c 11388 2016-12-11 19:17:54
sc520_wdt.c 11080 2016-12-11 19:17:54
sch311x_wdt.c 13801 2016-12-11 19:17:54
scx200_wdt.c 6599 2016-12-11 19:17:54
shwdt.c 9322 2016-12-11 19:17:54
sirfsoc_wdt.c 5819 2016-12-11 19:17:54
smsc37b787_wdt.c 15474 2016-12-11 19:17:54
softdog.c 4137 2016-12-11 19:17:54
sp5100_tco.c 15328 2016-12-11 19:17:54
sp5100_tco.h 1732 2016-12-11 19:17:54
sp805_wdt.c 7312 2016-12-11 19:17:54
st_lpc_wdt.c 7474 2016-12-11 19:17:54
stmp3xxx_rtc_wdt.c 4121 2016-12-11 19:17:54
sun4v_wdt.c 4594 2016-12-11 19:17:54
sunxi_wdt.c 8447 2016-12-11 19:17:54
tangox_wdt.c 5514 2016-12-11 19:17:54
tegra_wdt.c 7896 2016-12-11 19:17:54
ts4800_wdt.c 5352 2016-12-11 19:17:54
ts72xx_wdt.c 10015 2016-12-11 19:17:54
twl4030_wdt.c 3873 2016-12-11 19:17:54
txx9wdt.c 4683 2016-12-11 19:17:54
ux500_wdt.c 4104 2016-12-11 19:17:54
via_wdt.c 7638 2016-12-11 19:17:54
w83627hf_wdt.c 10637 2016-12-11 19:17:54
w83877f_wdt.c 10171 2016-12-11 19:17:54
w83977f_wdt.c 12093 2016-12-11 19:17:54
wafer5823wdt.c 7256 2016-12-11 19:17:54
watchdog_core.c 11342 2016-12-11 19:17:54
watchdog_core.h 1330 2016-12-11 19:17:54
watchdog_dev.c 27793 2016-12-11 19:17:54
watchdog_pretimeout.c 4804 2016-12-11 19:17:54
watchdog_pretimeout.h 1645 2016-12-11 19:17:54
wd501p.h 1598 2016-12-11 19:17:54
wdat_wdt.c 13007 2016-12-11 19:17:54
wdrtas.c 15626 2016-12-11 19:17:54
wdt.c 15830 2016-12-11 19:17:54
wdt285.c 4856 2016-12-11 19:17:54
wdt977.c 12079 2016-12-11 19:17:54
wdt_pci.c 17672 2016-12-11 19:17:54
wm831x_wdt.c 7533 2016-12-11 19:17:54
wm8350_wdt.c 4240 2016-12-11 19:17:54
xen_wdt.c 7630 2016-12-11 19:17:54
ziirave_wdt.c 19774 2016-12-11 19:17:54